ECMWFNIL_700_spd_057.txt.gz
Wind_Speed
21 21 20 18 16 15 14 10 8 6 5 4 4 5 6 5 7 9 8 7 7 6 6 6 6 6 6 6 6 6 6 6 5 6 7 7 7 8 9 10 10 10
22 22 20 18 16 15 13 11 9 8 6 5 5 6 5 5 7 8 8 7 7 7 7 7 7 7 7 7 7 7 7 7 6 6 7 7 6 7 8 9 9 9
22 21 19 17 16 15 13 11 9 8 6 6 6 6 5 6 7 8 8 7 8 8 8 8 8 8 8 9 8 8 7 7 7 6 5 5 6 6 6 7 7 7
21 20 19 17 16 15 13 12 10 8 9 10 8 5 5 6 6 7 7 7 8 9 10 10 10 9 9 10 10 9 8 8 7 6 6 6 6 6 6 5 5 5
20 20 19 17 17 16 14 13 12 11 13 14 8 5 6 6 6 7 7 8 9 10 11 11 11 11 11 11 10 10 9 8 8 8 7 6 6 6 6 6 5 4
20 20 19 19 19 17 15 16 15 15 15 13 6 6 7 7 7 7 8 9 10 11 12 13 13 13 13 12 11 11 10 10 9 9 8 8 6 6 6 6 5 5
22 22 21 20 20 18 18 19 17 16 14 10 7 8 8 7 8 8 9 10 11 13 13 14 14 13 13 12 11 11 10 10 9 9 9 8 7 7 6 6 6 6
24 24 23 22 21 21 21 21 19 17 14 10 10 10 9 9 8 8 9 9 11 12 13 13 13 13 12 11 11 10 9 8 8 8 7 6 6 5 5 5 5 5
26 26 24 23 23 23 23 22 21 19 16 12 13 12 10 10 9 9 9 9 10 11 12 12 12 11 11 10 10 9 8 7 6 5 5 5 4 3 2 2 2 2
28 29 27 25 25 25 24 24 24 23 20 15 15 14 12 11 11 10 9 9 10 11 11 10 10 9 9 9 9 8 7 6 5 3 3 3 3 3 2 2 1 1
28 29 30 29 29 28 28 27 26 25 23 18 17 16 13 13 13 12 11 10 10 10 9 9 9 9 9 8 8 7 7 6 5 4 4 4 4 4 4 4 4 4
28 29 31 33 32 31 31 31 30 28 26 20 18 16 15 15 13 11 10 10 9 8 8 9 9 9 9 9 8 8 7 6 6 6 6 7 7 7 7 7 8 8
28 29 31 33 33 32 33 33 30 27 26 21 19 18 18 16 12 9 9 10 9 9 9 10 10 10 10 11 10 9 8 8 8 9 9 10 10 10 11 11 11 12
29 30 32 34 35 35 36 35 31 27 26 24 21 20 18 15 13 11 12 12 12 12 12 12 12 12 11 11 11 10 10 10 10 11 12 12 13 13 13 13 13 13
24 25 27 30 29 28 28 28 26 27 28 24 21 21 18 16 17 16 16 16 15 15 15 14 14 13 13 13 12 12 13 13 13 14 14 14 15 15 15 14 14 14
17 17 18 18 16 17 20 22 23 24 25 23 22 21 18 19 21 20 18 19 19 18 17 17 17 16 15 15 15 15 15 16 17 17 17 16 16 17 16 16 16 16
14 14 13 12 13 18 20 21 21 22 22 22 22 22 20 21 23 22 20 21 22 21 21 20 19 19 18 18 18 18 18 19 19 19 19 19 18 18 18 19 19 20
12 12 13 14 16 19 19 19 20 21 22 22 22 22 21 22 22 22 21 22 24 24 24 23 22 21 21 21 21 21 21 22 21 21 22 21 18 18 19 20 21 22
10 10 12 14 14 16 18 19 19 21 23 23 22 22 22 22 22 22 21 22 24 24 24 24 23 23 22 22 23 23 23 23 22 21 21 20 16 17 20 20 21 22
7 9 11 12 13 16 19 20 20 23 24 24 24 24 23 23 23 23 23 24 24 24 24 24 24 25 24 24 25 25 24 23 22 21 22 21 18 18 20 20 20 21
6 8 10 10 12 15 19 20 21 23 25 24 24 24 24 25 25 25 26 25 24 24 24 24 25 25 24 24 25 25 24 23 23 22 23 23 22 22 23 23 22 23
6 9 10 11 12 14 16 18 19 22 24 23 23 25 26 26 26 26 26 23 21 22 24 25 26 25 22 22 23 23 24 24 23 23 24 24 24 24 25 25 25 25
7 9 11 13 15 16 16 18 19 21 23 23 23 24 25 26 27 26 25 21 19 21 23 26 27 23 21 23 24 24 25 24 23 23 24 24 24 25 25 26 26 26
8 9 11 14 16 18 19 20 20 20 22 23 24 24 24 25 25 25 24 23 22 22 23 25 25 21 19 23 25 25 25 25 24 24 24 25 25 25 25 25 25 26
11 11 12 14 16 18 20 21 21 21 21 22 23 24 24 25 25 25 24 23 22 22 22 24 25 23 21 22 23 24 25 25 24 25 25 25 25 26 26 26 27 27
13 14 14 15 16 18 19 20 21 21 21 21 23 24 25 25 25 25 24 23 23 23 24 24 25 25 25 24 24 25 25 25 25 26 26 26 28 29 29 29 29 29

ECMWFNIL_700_spd_060.txt.gz
Wind_Speed
20 21 21 18 14 11 9 7 7 6 5 6 7 7 8 8 8 8 9 10 9 10 9 8 7 6 5 5 5 5 5 5 5 6 7 9 10 11 12 13 12 12
21 23 22 18 15 12 9 8 9 8 7 7 8 8 8 7 7 8 8 9 9 10 9 9 8 6 6 6 5 5 5 5 4 5 6 8 9 10 12 13 13 12
21 21 20 18 16 14 12 12 11 9 8 9 10 9 9 7 7 7 7 7 8 9 9 9 8 7 7 6 5 5 5 5 5 6 7 7 8 10 11 11 11 10
20 20 19 18 18 17 15 13 11 10 11 12 11 10 9 8 8 7 7 6 6 7 8 8 8 7 7 6 6 6 6 6 6 7 7 8 8 9 9 9 9 8
21 22 21 20 20 18 15 13 13 12 14 15 13 11 9 8 8 7 7 7 6 7 8 8 8 8 7 6 6 7 7 7 7 7 8 8 8 8 8 9 8 8
23 23 23 22 20 17 16 15 15 14 16 17 14 11 8 7 7 7 8 8 7 7 8 8 8 7 7 7 7 7 8 8 8 9 9 9 9 8 8 9 9 9
23 24 24 22 20 19 18 17 16 16 17 18 14 10 7 7 7 8 8 8 7 8 9 9 8 8 8 8 8 8 9 10 10 11 11 11 10 9 8 9 10 10
23 23 23 22 22 21 20 19 18 18 19 18 14 10 7 8 8 8 8 8 8 8 8 9 9 9 9 9 9 9 9 9 10 11 11 11 11 10 9 8 9 10
23 22 22 22 23 22 21 20 21 20 19 18 15 11 8 8 8 8 8 7 8 8 8 8 8 9 9 8 8 8 8 8 7 8 8 9 9 9 8 7 6 7
25 23 23 23 23 23 23 23 23 22 21 19 15 12 10 10 10 10 8 7 7 8 8 8 8 7 7 7 6 6 6 6 6 5 6 6 6 6 5 5 4 4
26 25 24 24 25 25 25 24 25 24 22 20 16 12 12 12 12 12 10 8 8 8 8 8 8 7 7 6 6 5 5 5 4 3 3 3 2 3 2 2 2 2
28 27 26 26 27 27 26 26 26 26 24 22 18 14 14 14 14 14 13 11 10 9 9 9 9 8 8 7 6 5 5 4 3 3 3 3 2 2 3 3 4 4
28 28 28 29 30 30 29 28 27 28 27 25 21 17 16 17 17 16 15 13 12 10 9 9 9 9 9 8 7 7 6 6 5 5 6 6 5 6 6 7 7 8
31 30 30 33 33 32 32 31 31 31 30 29 26 22 18 19 20 18 16 15 14 12 10 10 10 9 9 9 9 8 8 7 7 8 8 9 9 9 10 10 11 11
34 34 34 35 34 32 32 33 34 34 34 35 31 24 20 22 23 21 18 16 15 14 12 11 11 11 11 10 10 9 10 10 10 11 12 12 12 12 12 13 14 14
34 36 36 35 35 34 33 33 36 37 37 37 32 25 22 25 24 22 20 17 16 16 15 14 13 13 13 13 13 13 13 14 14 14 15 15 14 14 14 15 16 17
26 29 30 31 32 31 28 29 34 38 38 36 31 26 25 27 25 24 21 19 18 18 17 16 16 16 16 15 15 16 16 17 17 17 17 16 16 16 16 17 18 19
17 19 21 23 25 22 19 21 25 30 33 31 29 27 28 28 26 24 22 21 20 19 19 18 18 18 19 18 19 20 20 20 20 19 19 18 17 16 17 18 19 19
10 12 12 14 16 14 14 14 15 19 23 25 26 28 29 29 26 24 23 23 23 22 22 22 21 21 21 22 23 23 23 22 22 22 21 20 18 17 17 19 19 19
6 7 8 10 12 11 12 13 14 16 19 22 25 27 28 27 26 24 23 24 25 26 25 24 25 25 25 25 26 26 26 25 25 24 24 23 21 19 18 18 20 20
4 5 6 8 10 10 11 13 14 15 16 18 21 24 25 25 25 25 24 25 26 27 25 25 26 26 26 27 28 28 28 27 27 27 26 25 23 21 20 21 22 23
5 4 5 7 8 9 10 12 14 15 16 18 20 22 23 24 24 25 25 26 26 26 25 26 27 26 27 28 29 29 28 28 28 29 28 26 25 24 24 24 24 25
6 5 5 7 8 9 10 12 14 16 17 18 20 21 23 23 24 26 27 26 26 27 26 26 26 26 27 29 29 28 27 27 27 28 28 27 26 26 26 25 24 26
5 5 6 7 8 10 11 11 12 14 16 18 19 21 23 24 24 27 28 27 28 28 27 25 24 24 25 26 27 27 27 28 28 29 29 28 27 27 27 26 26 27
4 5 6 7 9 10 11 12 13 14 16 17 18 20 22 24 25 27 26 25 26 26 24 23 24 23 21 23 25 26 26 27 28 30 30 29 28 28 28 28 28 27
6 7 8 8 9 10 12 13 15 17 19 20 21 22 23 24 25 26 25 23 24 23 22 23 25 25 23 23 25 27 27 27 27 28 28 29 29 30 29 29 29 28

ECMWFNIL_700_spd_063.txt.gz
Wind_Speed
20 19 18 18 17 15 13 11 8 5 3 1 2 5 6 7 7 7 7 7 6 5 4 4 3 3 2 2 3 4 5 7 9 10 12 13 14 14 14 13 12 11
20 19 20 19 17 15 13 11 8 6 4 3 4 5 6 7 8 8 8 8 7 6 5 4 3 3 2 2 2 3 4 5 6 8 9 11 13 14 14 13 12 12
20 21 22 20 18 15 12 10 9 7 5 5 6 6 6 8 9 8 7 7 7 7 6 5 3 3 2 2 2 3 3 3 4 6 8 9 10 11 12 13 13 12
22 24 23 21 18 15 12 10 10 8 7 8 8 7 7 8 9 7 6 6 6 7 7 6 5 4 3 2 3 3 3 4 4 6 8 9 9 10 10 11 12 12
25 26 24 22 19 17 14 12 11 9 9 10 9 8 9 9 8 7 5 5 6 6 6 6 6 5 3 3 4 4 5 5 5 7 8 9 9 9 10 11 11 11
25 26 26 23 20 18 15 13 12 11 11 11 10 10 9 8 7 6 5 5 5 5 6 6 6 5 4 4 5 6 6 7 7 8 8 9 9 10 10 11 11 12
24 26 26 23 20 19 16 14 13 13 13 13 12 11 9 7 6 5 5 4 4 4 5 6 6 5 4 5 6 7 8 8 9 9 9 9 9 10 10 11 12 13
23 24 24 22 20 19 18 16 15 15 15 15 13 12 9 6 5 4 3 3 3 4 5 6 5 5 6 7 8 8 9 10 10 10 10 9 10 10 10 11 12 13
22 22 22 22 21 20 19 18 17 17 17 16 14 12 9 6 4 4 2 1 2 4 5 6 6 7 7 9 10 10 10 10 11 10 10 10 11 11 11 11 11 12
21 21 22 22 22 21 21 20 19 19 18 17 16 13 10 7 5 4 3 2 3 4 5 6 6 7 8 9 9 10 10 10 10 10 9 8 9 9 10 10 9 10
24 23 21 22 23 22 22 21 20 20 19 18 17 14 11 8 7 6 6 5 4 5 6 7 7 7 7 8 8 8 8 9 8 8 8 7 7 7 7 7 7 6
27 25 23 22 23 23 23 22 21 21 21 20 18 17 14 11 9 9 9 8 7 7 8 8 8 7 7 7 8 7 7 7 7 7 8 7 7 7 6 5 5 5
27 28 26 25 24 24 24 23 22 22 22 21 20 19 17 14 12 11 12 11 9 9 10 10 9 9 8 8 8 8 7 7 7 8 8 8 7 7 7 7 6 6
27 28 29 28 27 27 26 25 24 23 22 23 22 21 20 18 15 14 14 13 12 11 11 10 10 10 9 9 8 8 8 8 8 8 9 9 8 8 8 8 9 9
27 28 30 30 30 29 27 26 25 23 22 23 23 23 22 20 17 16 16 16 14 13 13 13 12 12 11 11 10 9 9 9 9 9 9 10 10 10 10 10 11 11
28 29 30 31 31 30 28 27 26 25 24 24 25 26 25 24 22 19 18 18 15 15 16 15 14 14 13 13 12 11 11 11 10 10 11 11 11 12 12 12 12 12
27 29 30 31 31 30 31 30 28 28 28 28 29 30 28 31 32 26 21 20 17 16 18 18 17 16 15 15 14 14 14 13 13 13 13 13 13 14 14 14 14 14
26 28 30 31 31 31 32 30 27 29 33 33 33 32 32 37 38 31 22 21 20 18 19 20 19 19 18 17 17 17 17 16 16 16 16 16 17 17 17 17 17 16
21 24 26 28 28 28 27 25 24 26 31 32 32 31 34 39 37 30 22 22 22 21 21 21 21 20 20 20 20 20 20 19 19 19 18 19 19 19 19 19 19 18
13 16 18 19 20 19 18 17 17 18 22 25 27 29 33 35 31 24 22 23 23 23 23 22 22 22 22 22 23 23 23 22 21 21 21 21 21 21 22 21 20 19
8 9 9 9 11 12 13 12 12 13 14 15 18 22 27 29 25 21 22 23 24 25 25 24 24 24 24 25 25 26 26 25 24 23 23 23 23 23 24 23 22 21
8 8 8 8 9 9 10 10 10 10 10 9 10 14 19 22 22 22 24 25 26 26 25 25 26 27 27 27 27 27 27 27 27 26 26 26 26 26 25 25 25 24
8 8 8 9 10 9 10 10 10 11 10 9 10 12 16 19 22 25 27 28 29 28 27 28 28 29 29 29 29 28 28 28 28 28 27 28 27 27 27 27 27 27
8 8 8 9 10 10 10 10 11 12 12 12 13 15 17 20 23 26 28 29 30 30 29 29 30 30 30 30 29 28 28 28 28 28 28 28 28 28 28 28 27 27
8 8 8 9 9 10 11 11 12 12 12 13 15 17 19 22 24 26 27 28 30 30 30 30 31 31 30 30 28 27 27 27 27 26 26 28 29 29 29 28 28 29
7 6 6 7 7 8 9 10 11 12 12 13 15 17 20 22 24 26 27 28 28 28 27 28 31 31 30 29 27 27 26 26 25 25 26 27 28 28 28 28 28 29

ECMWFNIL_700_spd_069.txt.gz
Wind_Speed
18 19 21 21 19 18 19 21 22 21 18 16 14 12 10 8 7 6 5 6 6 7 8 8 8 8 9 9 9 8 8 8 9 10 10 11 11 11 12 12 12 12
19 21 23 22 21 21 23 24 23 21 19 16 14 11 9 7 6 5 5 6 6 7 8 8 8 9 9 9 9 9 8 8 9 10 11 11 11 11 10 11 12 11
20 23 25 24 24 25 26 26 24 21 18 16 13 11 8 6 4 4 5 6 6 7 7 8 8 8 8 9 9 10 9 8 8 9 9 10 11 11 10 10 11 10
22 25 27 26 27 27 27 26 23 20 17 15 13 10 8 5 4 3 4 5 6 6 7 7 7 6 7 8 8 9 8 8 8 8 8 8 9 10 10 10 10 10
25 27 27 27 29 29 28 25 22 20 17 15 12 10 7 5 4 3 3 5 6 6 6 6 6 5 6 6 6 7 8 8 7 7 7 6 7 9 11 10 10 11
27 27 26 27 29 29 28 25 23 20 17 15 13 10 8 6 4 2 2 4 5 6 7 6 6 5 5 5 6 7 8 7 7 7 6 6 5 7 9 9 10 11
26 27 27 27 29 30 29 26 23 20 18 16 13 10 8 6 4 2 2 3 4 5 6 6 5 5 4 4 5 6 7 7 8 7 6 6 6 6 7 8 9 10
25 28 28 28 30 30 29 25 22 21 19 16 13 11 8 5 3 3 2 3 4 5 5 6 6 5 5 4 4 6 7 8 8 8 7 6 6 6 6 6 7 8
26 28 28 28 30 30 28 25 23 22 19 16 14 11 8 6 4 3 3 3 4 5 5 5 5 6 6 5 5 6 7 8 9 9 7 6 6 7 6 5 6 7
27 29 29 29 30 30 29 26 23 22 19 17 14 10 9 8 6 3 3 3 3 5 5 5 5 6 6 6 5 6 7 8 9 10 9 8 7 6 5 5 6 5
28 29 30 30 31 32 31 27 24 22 19 17 14 11 11 10 7 5 3 3 3 5 5 5 5 6 6 6 6 6 6 7 9 10 9 9 9 7 6 6 7 7
27 29 29 29 31 33 31 27 24 22 20 18 16 16 14 10 8 6 4 4 4 5 6 6 6 6 7 7 7 7 7 7 7 8 9 9 10 10 9 8 8 9
29 28 28 27 29 30 29 27 26 23 21 19 18 17 14 12 10 8 6 6 5 6 7 7 7 7 7 7 8 8 8 8 7 8 8 9 9 9 10 9 9 9
29 29 28 26 26 27 26 25 25 24 22 21 19 17 15 13 12 10 9 8 8 8 8 8 9 9 9 9 9 9 9 8 8 8 8 8 8 8 8 8 8 9
24 25 26 26 25 25 25 24 24 24 24 22 20 18 17 15 13 12 11 11 11 10 9 10 11 11 11 11 11 11 10 9 9 8 9 9 9 9 9 9 9 10
23 23 24 26 25 23 22 22 23 24 24 23 22 20 18 17 15 14 14 14 14 13 12 13 13 12 12 12 11 12 12 11 10 10 10 10 10 10 10 10 10 11
24 24 25 27 28 26 23 22 23 22 22 22 22 22 20 18 18 17 17 17 17 16 16 15 14 13 14 14 13 13 13 12 12 12 11 11 11 11 12 12 12 13
26 27 25 24 26 27 26 24 23 21 21 21 23 24 22 21 21 20 20 20 20 19 19 18 17 17 17 16 15 15 15 14 14 13 13 13 12 13 13 14 15 15
25 26 25 24 24 26 26 26 25 23 22 21 22 23 24 23 24 23 23 23 24 24 23 22 21 20 19 18 17 16 16 15 15 15 15 14 14 14 14 15 17 18
24 23 24 24 26 28 26 26 27 28 26 24 22 22 23 24 25 26 27 28 28 27 26 26 26 25 24 21 19 19 18 16 17 17 16 16 17 17 17 18 20 21
20 19 18 18 20 23 23 22 23 25 27 27 26 25 26 27 28 28 29 31 31 29 29 30 30 30 28 23 20 21 20 18 19 20 19 20 19 19 20 21 22 23
18 17 15 14 14 15 15 16 18 20 23 25 24 24 25 25 27 29 32 35 35 33 31 32 32 33 32 27 23 22 22 21 23 22 22 23 22 22 23 24 24 26
15 15 14 13 13 12 14 15 17 19 19 18 17 16 15 15 16 21 28 33 35 34 33 33 34 34 33 29 25 23 24 24 24 24 24 26 26 26 27 27 27 27
11 11 12 11 10 10 11 12 13 13 13 13 12 11 10 9 9 11 16 21 23 25 29 32 33 33 32 29 25 25 25 24 23 24 26 27 27 26 28 30 29 27
9 9 9 9 9 9 9 9 9 9 10 11 9 8 7 6 5 4 6 9 12 15 18 21 24 26 26 24 22 24 24 24 23 25 26 28 27 26 29 32 32 31
9 9 8 8 9 10 11 11 11 9 9 8 7 7 8 7 5 5 5 7 10 11 12 13 14 17 19 20 21 22 23 24 24 25 27 28 27 26 29 32 34 35

ECMWFNIL_700_spd_072.txt.gz
Wind_Speed
12 15 17 18 20 22 24 25 23 21 21 20 18 16 14 12 10 9 7 7 7 7 8 8 9 9 10 10 10 9 9 8 7 8 9 8 8 8 8 8 8 8
13 17 18 18 20 24 27 27 26 24 23 22 19 17 14 12 10 8 7 7 7 7 8 8 9 9 9 10 10 10 9 8 7 7 8 9 8 8 8 8 8 8
14 17 17 18 21 27 30 29 28 27 25 22 19 16 13 11 9 8 7 6 7 7 7 8 8 9 9 9 9 10 10 9 7 7 9 9 9 9 8 7 7 7
14 17 18 19 24 30 31 28 27 29 26 21 18 16 13 11 9 7 6 5 6 7 7 7 8 9 8 9 9 9 9 9 7 6 8 8 8 8 8 7 7 5
17 19 20 22 26 29 29 27 29 28 25 21 19 16 13 10 8 6 5 4 5 6 7 7 8 8 8 8 8 8 9 9 7 6 7 7 7 8 8 8 8 5
20 22 23 24 27 28 26 28 30 28 24 21 18 15 12 9 7 5 4 4 5 5 6 7 7 7 7 7 7 7 8 8 8 7 7 6 6 7 8 8 8 8
23 24 25 25 27 27 26 29 30 27 23 21 17 14 12 8 6 5 4 4 4 5 6 6 7 7 7 7 7 7 8 8 8 7 7 7 6 5 5 6 7 8
26 26 26 26 27 26 28 31 30 26 23 20 17 14 11 8 6 6 5 4 4 4 5 6 6 7 7 7 7 7 8 8 7 7 7 6 6 5 5 5 7 7
28 27 26 26 26 26 30 32 29 26 23 20 17 14 10 8 8 6 6 5 4 4 5 5 6 6 6 6 7 7 7 6 6 7 7 6 6 6 6 6 6 6
30 29 27 25 26 28 32 32 28 25 22 19 18 15 11 10 9 6 5 5 4 4 4 5 6 7 6 6 6 6 6 6 7 8 8 7 6 5 6 6 6 6
30 30 28 26 27 30 32 31 28 25 22 20 18 15 12 10 8 6 4 4 4 4 4 5 6 7 7 7 6 6 6 6 7 8 8 7 6 6 6 6 6 6
28 30 29 28 28 30 31 30 28 24 22 21 18 15 12 9 7 6 5 5 5 5 5 6 7 7 8 8 8 7 7 7 6 7 8 8 7 6 5 5 5 5
26 29 30 29 28 28 30 30 27 25 23 21 19 17 13 10 8 7 7 6 6 6 6 7 8 9 9 9 9 8 8 7 7 7 8 8 7 6 5 5 5 5
26 28 28 29 28 28 31 31 28 27 26 23 21 19 16 13 12 11 10 8 7 7 7 8 9 9 10 10 10 9 9 8 7 7 7 7 6 6 5 6 6 6
26 26 25 28 30 29 31 31 29 28 27 25 23 20 18 16 14 14 13 10 9 9 9 9 9 9 10 10 10 10 9 9 8 8 7 7 6 5 5 6 6 6
23 24 25 28 30 29 29 29 29 29 27 25 23 21 19 18 16 16 14 12 12 11 10 9 8 9 10 10 10 10 10 10 10 9 8 8 7 6 6 6 6 5
20 23 25 27 28 29 29 28 27 27 25 24 23 22 21 19 18 18 16 15 15 14 11 10 10 10 11 11 11 12 11 11 10 10 10 9 8 7 7 8 8 7
21 23 25 26 26 28 30 30 29 28 27 25 24 24 24 22 20 20 20 19 17 14 12 13 12 12 13 13 13 13 13 12 11 11 11 10 9 9 9 9 9 10
21 21 23 25 25 25 28 30 31 31 29 25 23 24 24 23 21 21 20 19 18 15 14 15 16 16 16 15 16 15 13 12 12 11 11 11 11 11 11 12 13 14
19 19 21 23 24 24 25 27 29 30 27 24 21 22 24 24 23 23 22 21 20 18 18 18 19 20 20 19 19 18 17 16 14 13 13 13 13 13 14 15 16 16
17 18 19 21 24 24 24 25 27 27 26 25 23 22 24 25 25 24 24 23 23 22 21 21 22 23 23 23 23 22 21 20 17 16 17 16 15 16 17 18 19 19
17 17 18 20 21 21 21 21 22 24 25 25 26 26 26 27 27 26 25 24 24 23 23 23 25 26 26 26 26 25 25 23 19 18 20 21 19 20 21 21 22 23
18 16 16 16 16 17 18 18 18 20 22 23 24 26 27 28 29 28 26 26 26 27 28 27 28 29 30 29 28 28 29 29 25 21 21 24 23 22 23 23 24 24
15 14 13 13 14 15 15 14 14 15 16 17 18 19 19 19 18 17 18 19 20 23 26 29 30 30 30 30 30 30 31 32 29 23 20 23 25 25 25 25 25 25
12 12 11 11 12 13 13 12 12 12 13 13 13 13 11 10 9 7 7 8 10 11 15 19 22 23 24 25 27 28 29 30 28 23 20 23 25 26 27 27 27 26
11 11 10 10 10 11 12 12 12 12 12 11 10 9 8 8 7 7 6 5 4 4 5 8 10 12 14 16 18 20 22 22 20 18 18 21 24 25 27 28 28 27

ECMWFNIL_700_spd_075.txt.gz
Wind_Speed
16 13 14 14 15 19 21 22 21 21 21 20 19 19 17 16 15 14 13 11 10 10 10 11 11 11 11 11 11 11 10 10 10 10 9 9 9 9 10 10 10 10
17 15 15 17 18 20 22 22 22 22 22 20 20 19 18 17 15 13 11 10 9 10 10 10 10 11 11 12 12 11 11 10 9 9 8 9 9 8 9 9 9 9
19 16 17 20 20 21 24 24 23 23 22 21 20 20 19 17 15 13 11 9 9 8 8 9 9 10 11 12 13 12 12 11 10 9 8 8 7 7 7 8 7 6
19 18 20 21 22 23 26 26 25 24 23 22 22 21 19 16 14 12 10 9 8 7 8 9 9 9 11 12 13 13 12 11 10 9 8 8 7 6 7 7 6 6
21 22 23 23 23 26 27 27 27 26 24 23 23 20 17 15 13 11 9 8 8 7 8 8 8 9 10 10 12 13 12 12 11 10 9 8 7 7 7 7 7 6
21 23 22 22 24 25 26 26 27 26 24 23 22 19 16 14 12 10 9 8 7 7 7 7 7 8 9 10 12 12 12 12 12 10 9 9 8 7 7 7 7 7
20 22 21 22 24 23 25 27 27 26 24 22 20 18 15 13 11 10 9 8 7 7 7 7 6 7 9 10 11 11 12 12 11 10 9 9 8 7 7 7 7 7
20 22 23 24 25 25 27 28 28 26 24 22 20 17 15 13 11 10 9 8 8 7 7 6 6 8 8 9 10 11 12 11 10 9 9 9 9 8 8 8 7 7
22 24 25 26 27 27 29 30 30 28 24 22 20 18 16 13 11 10 9 8 8 8 7 6 7 7 7 8 11 11 10 10 10 10 10 9 8 8 7 7 6 7
22 25 26 28 28 28 30 30 30 28 25 23 22 19 16 13 11 10 10 9 9 8 7 7 7 7 7 10 10 9 10 11 10 10 10 9 7 7 7 6 6 6
22 24 27 29 29 29 29 29 29 29 26 25 22 19 16 13 12 11 10 10 10 9 8 7 7 7 8 9 9 9 11 12 10 10 9 8 7 7 7 6 6 7
24 26 28 30 29 29 28 27 29 29 27 25 23 19 16 14 13 12 11 10 10 9 8 8 8 8 9 9 9 10 12 11 9 10 9 8 7 7 7 8 8 7
26 28 30 31 30 29 28 28 30 30 28 26 23 19 17 15 13 11 10 10 9 9 9 8 8 9 9 10 10 10 10 10 10 11 11 10 8 8 8 9 8 8
29 28 30 32 30 29 29 30 31 30 28 27 23 20 19 16 13 11 10 9 8 8 8 8 8 8 9 9 9 9 9 11 11 11 11 10 10 9 9 8 8 7
30 29 30 31 30 29 29 29 30 30 29 28 24 22 20 17 15 14 12 9 8 8 8 8 8 8 8 9 9 9 9 11 11 11 10 10 10 9 9 8 8 8
28 29 31 30 29 31 30 28 29 31 31 29 26 24 23 20 19 17 14 11 9 10 10 8 8 8 9 9 9 9 10 10 11 11 10 9 9 9 9 9 9 8
27 28 31 30 30 33 33 30 29 31 32 31 29 27 25 22 20 19 16 12 12 13 11 10 9 9 10 9 10 10 10 10 11 11 12 11 10 9 10 10 10 10
24 25 29 30 30 32 34 33 31 31 32 32 30 27 24 22 21 19 17 14 14 14 13 12 11 11 11 11 12 12 11 11 12 12 12 12 12 11 11 11 11 11
21 24 27 28 28 31 35 34 32 32 33 32 29 26 23 21 21 19 18 17 16 16 15 15 14 13 13 14 14 14 14 14 14 13 13 12 11 11 11 11 11 11
22 24 26 27 27 29 33 34 33 34 34 33 31 27 24 22 20 20 20 19 18 18 17 17 16 16 16 16 16 17 17 17 17 16 14 12 11 10 11 12 13 13
23 23 24 25 26 27 29 32 33 33 33 34 33 30 27 25 23 22 22 21 20 20 19 18 17 17 18 18 19 19 19 19 19 18 17 16 14 14 13 12 13 14
21 22 23 24 25 26 28 31 31 29 29 31 32 31 29 27 25 24 24 22 21 21 20 19 17 17 18 19 20 21 21 21 22 22 21 20 18 17 17 17 16 16
17 19 22 24 25 24 25 27 28 28 28 29 30 29 28 28 27 26 25 24 23 22 21 21 21 20 19 20 22 23 23 24 25 26 25 23 20 18 19 20 22 22
18 18 20 21 23 24 24 22 22 24 27 29 31 30 30 31 31 30 29 28 27 27 26 26 26 25 23 22 23 24 25 26 27 28 28 27 25 24 24 25 26 26
19 18 18 18 20 22 22 20 17 17 18 22 26 28 29 29 29 29 29 29 29 29 29 28 27 27 25 24 25 26 26 27 28 29 30 31 31 31 30 27 23 22
15 16 17 17 16 16 17 17 15 13 12 13 14 17 18 18 18 18 19 20 21 22 22 22 21 22 22 22 24 26 27 28 30 31 30 29 28 27 24 21 19 20